LEMUR-2-YUASA (43560 NORAD) Tracking and Keplerian Element Data

This shows tracking and keplerian element data for the satellite.

Feedback or suggestion? Click here.




ElementValue
Catalog43560
NameLEMUR-2-YUASA
Epoch Orbit5526
Epoch Day193.88425771
Epoch Year2019
RAAN299.6398
Inclination51.6427
Eccentricity0.0008366
Argument of Perigee169.4739
Mean Anonmoly190.6418
Mean Motion15.2940914
Decay Rate2.011E-05
L11 43560U 18046G 19193.88425771 .00002011 00000-0 81889-4 0 9994
L22 43560 51.6427 299.6398 0008366 169.4739 190.6418 15.29409140 55265

Live tracking and technical data element details for LEMUR-2-YUASA (NORAD 43560). LEMUR-2-YUASA can be tracked NOW for your location showing map with azimuth and elevation plus other details from your city location.

Track the satellite on the map from your city or location and see movement details for azimuth, elevation, latitude, longitude, range, height, and movement on the map or in text.







IsCatalogInMostPopularTable: catalog: 43560, numindb: 182
Update: records affected: 1



GetName: 43560 LEMUR-2-YUASA

Hit Count: updated at: Tue, 16 Jul 2019 21:45:30 GMT